Location: Bun Machan
(52.1403°N, 7.3744°W)
Time: 01:32:12
(UTC+00:00)

Cosmos 614 Rocket - Pass Details

Date: 14 July 2020
Orbit: 732 x 764 km, 74.1° (Epoch: 11 August)

Event Time Altitude Azimuth Distance (km) Brightness Sun altitude
Exits shadow 02:23:12 18° 207° (SSW) 1,754 5.2 -12.6°
Maximum altitude 02:27:00 84° 295° (WNW) 754 3.9 -12.3°
Drops below altitude 10° 02:32:10 10° 24° (NNE) 2,276 8.0 -12.0°
Sets 02:34:33 0° 26° (NNE) 3,210 9.4 -11.8°
